Location: Newark
(34.0131°N, 4.3314°W)
Time: 12:21:19
(UTC+00:00)

Tiros 1 despin weight - Visible Passes

Search period start: 22 October 2019 00:00
Search period end: 01 November 2019 00:00
Orbit: 593 x 643 km, 48.2° (Epoch: 21 October)

Date Brightness Start Highest point End Pass type
(mag) Time Alt. Az. Time Alt. Az. Time Alt. Az.
22 Oct ? 04:18:38 16° N 04:19:11 17° NNE 04:22:13 10° NE visible
22 Oct ? 05:57:09 10° NW 06:01:41 45° NNE 06:06:08 10° ESE visible
23 Oct ? 04:34:43 19° N 04:36:15 22° NNE 04:39:55 10° ENE visible
24 Oct ? 04:50:51 21° NNW 04:53:10 33° NNE 04:57:24 10° E visible
25 Oct ? 03:29:59 13° NE 03:29:59 13° NE 03:30:55 10° ENE visible
25 Oct ? 05:07:04 22° NW 05:09:56 58° NE 05:14:32 10° ESE visible
26 Oct ? 03:46:18 21° ENE 03:46:18 21° ENE 03:48:33 10° E visible
26 Oct ? 05:23:23 21° WNW 05:26:32 72° SW 05:31:10 10° SE visible
27 Oct ? 04:02:42 34° ENE 04:02:42 34° ENE 04:05:53 10° ESE visible
27 Oct ? 05:39:48 16° WNW 05:42:59 34° SW 05:47:11 10° SSE visible
28 Oct ? 04:19:12 53° ESE 04:19:12 53° ESE 04:22:49 10° ESE visible
28 Oct ? 05:56:23 10° W 05:59:17 16° SW 06:02:10 10° SSW visible
29 Oct ? 04:35:48 42° S 04:35:48 42° S 04:39:13 10° SSE visible
30 Oct ? 04:52:28 22° SSW 04:52:28 22° SSW 04:54:53 10° S visible
30 Oct ? 18:52:11 10° S 18:54:00 16° SSE 18:54:00 16° SSE visible
31 Oct ? 19:07:18 10° SSW 19:10:34 33° SSE 19:10:34 33° SSE visible
